Content
SEND FEEDBACK

Daily
Averages
Monthly
Summary
Thailand

BANGKOK, THAILAND


Home > Asia > Thailand
Elevation: 66 feet     Latitude: 13 44N     Longitude: 100 34E

WEATHER
 
SELECT A DAY
Number of Records: 235,813;   Date Range: 7/1/96 - 9/18/14
 
SHARE

PRINT THIS DATA

[ ← Previous Day ]
WEATHER ALMANAC - FEBRUARY 14, 2013
[ Next Day → ]
[ °C ]   °F
Weather ElementAverageHighLow
Temperature86.5 °F96.8 °F (3:00 pm)78.8 °F (6:00 am)
Dewpoint71.7 °F74 °F (7:00 am)68 °F (5:00 pm)
Humidity62.2 %83 % (6:00 am)40 % (1:00 pm)
Barometer29.83 in29.89 in (12:30 am)29.74 in (4:30 pm)
Wind Speed3.5 mph9.2 mph (9:30 am)
Weather ElementAverage
Visibility3.2 mi
Wind DirectionSSE (162.4 °)

Weather ElementTotal
Precipitation---
Cooling Degree Days22.8 (Base 65)
Growing Degree Days37.8 (Base 50)
Averaged from 50 records on February 14, 2013
WEATHER CONDITIONS BREAKOUT
WIND DIRECTION BREAKOUT
WEATHER BY HOUR - FEBRUARY 14, 2013
[ °C ]   °F
Local TimeTemperatureDewpointHumidityBarometerVisibilityWind DirectionWind SpeedGust SpeedPrecipitationEventsConditions
12:30 AM82.4 °F71.6 °F70 %29.89 in4.3 miSouth (170°)3.5 mph
1:00 AM83.0 °F73.0 °F64 %29.88 in4.0 miSouth (170°)3.5 mphMist
1:30 AM82.4 °F73.4 °F74 %29.86 in3.7 miCalm
2:00 AM82.4 °F73.4 °F74 %29.86 in3.7 miCalm
2:30 AM82.4 °F73.4 °F74 %29.86 in3.7 miNNW (340°)3.5 mph
3:00 AM82.4 °F73.4 °F74 %29.83 in3.7 miCalm
3:30 AM80.6 °F71.6 °F74 %29.83 in3.1 miCalmMist
4:00 AM80.6 °F73.4 °F79 %29.83 in3.1 miCalmMist
4:30 AM80.6 °F73.4 °F79 %29.83 in3.1 miNE (50°)3.5 mphMist
5:00 AM80.6 °F73.4 °F79 %29.83 in2.5 miEast (100°)3.5 mphMist
5:30 AM80.6 °F73.4 °F79 %29.83 in2.5 miCalmMist
6:00 AM78.8 °F73.4 °F83 %29.83 in1.9 miCalmMist
6:30 AM78.8 °F73.4 °F83 %29.83 in1.9 miESE (110°)3.5 mphMist
7:00 AM79.0 °F74.0 °F79 %29.86 in2.0 miESE (120°)3.5 mphMist
7:00 AM78.8 °F73.4 °F83 %29.86 in1.9 miESE (120°)3.5 mphMist
7:30 AM78.8 °F73.4 °F83 %29.86 in1.9 miCalmMist
8:00 AM80.6 °F73.4 °F79 %29.86 in1.9 miCalmMist
8:30 AM80.6 °F73.4 °F79 %29.89 in1.9 miNNW (340°)4.6 mphMist
9:00 AM82.4 °F73.4 °F74 %29.89 in1.9 miNW (320°)5.8 mphMist
9:30 AM84.2 °F73.4 °F70 %29.89 in2.5 miNorth (350°)9.2 mphMist
10:00 AM84.2 °F73.4 °F70 %29.89 in2.5 miNNW (340°)3.5 mphMist
10:30 AM86.0 °F73.4 °F66 %29.89 in2.5 miNNE (30°)4.6 mphMist
11:00 AM87.8 °F71.6 °F58 %29.89 in2.5 miNE (50°)3.5 mphHaze
11:30 AM87.8 °F71.6 °F58 %29.86 in2.5 miENE (70°)4.6 mphHaze
12:00 PM89.6 °F73.4 °F59 %29.86 in2.5 miNE (50°)3.5 mphHaze
12:30 PM89.6 °F73.4 °F59 %29.86 in2.5 miNNW (340°)3.5 mphHaze
1:00 PM92.0 °F71.0 °F40 %29.85 in2.0 miNE (40°)3.5 mphHaze
1:00 PM93.2 °F71.6 °F49 %29.83 in2.5 miNE (40°)3.5 mphHaze
1:30 PM93.2 °F71.6 °F49 %29.83 in2.5 miSSW (210°)2.3 mphHaze
2:00 PM93.2 °F69.8 °F46 %29.80 in2.5 miSSW (210°)3.5 mphHaze
2:30 PM95.0 °F71.6 °F47 %29.77 in3.1 miENE (70°)3.5 mphHaze
3:00 PM96.8 °F71.6 °F44 %29.77 in3.7 miNE (50°)5.8 mphScattered Clouds
3:30 PM96.8 °F69.8 °F41 %29.77 in3.7 miESE (120°)2.3 mphScattered Clouds
4:00 PM95.0 °F69.8 °F44 %29.77 in4.3 miEast (80°)2.3 mph
4:30 PM95.0 °F69.8 °F44 %29.74 in4.3 miEast (100°)4.6 mph
5:00 PM95.0 °F68.0 °F41 %29.74 in5.0 miENE (70°)4.6 mph
5:30 PM95.0 °F68.0 °F41 %29.74 in4.3 miEast (80°)2.3 mph
6:00 PM95.0 °F68.0 °F41 %29.74 in4.3 miENE (60°)2.3 mph
6:30 PM93.2 °F68.0 °F44 %29.77 in4.3 miNNW (340°)6.9 mph
7:00 PM90.0 °F71.0 °F44 %29.78 in4.0 miNW (310°)5.8 mphHaze
7:00 PM89.6 °F71.6 °F55 %29.77 in4.3 miNW (310°)5.8 mph
7:30 PM87.8 °F71.6 °F58 %29.77 in3.7 miNW (310°)6.9 mph
8:00 PM87.8 °F69.8 °F55 %29.77 in3.7 miNW (320°)5.8 mph
8:30 PM86.0 °F69.8 °F58 %29.80 in3.7 miNNW (330°)6.9 mph
9:00 PM86.0 °F69.8 °F58 %29.83 in3.7 miNNW (340°)4.6 mph
9:30 PM86.0 °F69.8 °F58 %29.83 in3.7 miNW (320°)4.6 mph
10:00 PM84.2 °F69.8 °F62 %29.83 in3.7 miNNW (330°)3.5 mph
10:30 PM84.2 °F69.8 °F62 %29.83 in3.7 miNW (320°)4.6 mph
11:00 PM84.2 °F69.8 °F62 %29.83 in3.7 miNNW (340°)4.6 mph
11:30 PM84.2 °F69.8 °F62 %29.86 in3.7 miNorth (350°)4.6 mph
Hourly data recorded from VTBD, located miles away from Bangkok, Thailand







STORIES FROM OUR PARTNERS